[[{"header":{"parameterUnit":"m.s-1","parameterCategory":1,"la1":30.2991,"la2":30.254,"lo1":-89.0895,"lo2":-89.0444,"dy":0.0017,"dx":0.0017,"nx":28,"ny":28,"refTime":"2024-04-24T21:00:00:Z","depth":0,"parameterNumber":2,"parameterNumberName":"U-component_of_WINDS"},"data":[0,0,0,0,0,0,0,0,0,0,0,0,0,0,0,0,0,0,0,0,0,0,0,0,0,0,0,0,0,0,0,0,0,0,0,0,0,0,0,0,0,0,0,0,0,0,0,0,0,0,0,0,0,0,0,0,0,0,-0.9558,-0.9559,0,-0.9578,-0.9578,-0.9578,-0.9569,-0.9568,-0.9568,-0.9567,-0.9588,-0.9589,-0.959,0,0,0,0,0,0,0,0,0,0,0,0,0,-0.9515,-0.9515,-0.9558,-0.9559,-0.9559,-0.9578,-0.9578,-0.9579,-0.9569,-0.9568,-0.9568,-0.9567,-0.9588,-0.9589,-0.9591,0,0,0,0,0,0,0,0,0,0,0,0,0,-0.9534,-0.9516,-0.9558,-0.9556,-0.9556,-0.9578,-0.9578,-0.9579,-0.9569,-0.9568,-0.9568,-0.9567,-0.9588,-0.9589,-0.9591,-0.9616,0,0,-0.9595,-0.9596,0,0,0,0,0,0,0,0,-0.9533,-0.9535,-0.9556,-0.9557,-0.9557,-0.957,-0.957,-0.9591,-0.9569,-0.9564,-0.9567,-0.9567,-0.9583,-0.9585,-0.959,-0.9617,-0.9617,-0.9596,-0.9597,-0.9597,-0.9598,0,0,0,0,0,0,0,-0.9531,-0.9535,-0.9566,-0.9557,-0.9557,-0.9555,-0.9557,-0.9574,-0.9578,-0.9565,-0.9564,-0.9566,-0.9583,-0.9589,-0.9591,-0.9618,-0.9596,-0.9597,-0.9598,-0.9599,-0.9667,-0.9668,0,0,0,0,0,0,-0.953,-0.9533,-0.9566,-0.9567,-0.9543,-0.9557,-0.9559,-0.9567,-0.9578,-0.9578,-0.9567,-0.9566,-0.9587,-0.9589,-0.9591,-0.9622,-0.9597,-0.9599,-0.96,-0.9666,-0.9667,-0.9668,0,0,0,0,0,0,-0.9529,-0.9533,-0.9565,-0.955,-0.9554,-0.9558,-0.9567,-0.9567,-0.9573,-0.9579,-0.958,-0.9572,-0.9586,-0.9589,-0.961,-0.9623,-0.9599,-0.9601,-0.9665,-0.9667,-0.9668,-0.9684,0,0,0,0,0,0,-0.9528,-0.9533,-0.9542,-0.955,-0.9555,-0.9582,-0.9568,-0.9568,-0.9576,-0.9575,-0.9584,-0.9585,-0.9586,-0.9608,-0.9612,-0.9625,-0.9602,-0.9664,-0.9666,-0.9667,-0.9682,-0.9685,-0.9688,0,0,0,0,0,-0.9526,-0.9545,-0.9542,-0.9546,-0.9566,-0.9583,-0.9586,-0.9585,-0.9577,-0.9586,-0.9591,-0.9585,-0.9621,-0.961,-0.9614,-0.9628,-0.9663,-0.9665,-0.9667,-0.9681,-0.9685,-0.9688,0,0,0,0,0,0,-0.9538,-0.9546,-0.9543,-0.9565,-0.9573,-0.9581,-0.9593,-0.959,-0.9601,-0.9599,-0.9599,-0.9601,-0.9623,-0.9627,-0.9615,-0.9653,-0.9641,-0.9644,-0.965,-0.9654,-0.9657,-0.9655,-0.9603,0,0,0,0,0,-0.9543,-0.9556,-0.9562,-0.9581,-0.9586,-0.9589,-0.9596,-0.9596,-0.9604,-0.9608,-0.9614,-0.9623,-0.9636,-0.9645,-0.9658,-0.9683,-0.9685,-0.9694,-0.9697,-0.97,-0.9703,-0.9718,-0.9722,-0.9675,-0.9675,-0.9675,0,0,-0.9554,-0.956,-0.9568,-0.9584,-0.959,-0.9605,-0.9592,-0.9607,-0.9618,-0.961,-0.963,-0.9635,-0.9645,-0.9669,-0.9679,-0.9673,-0.9716,-0.9703,-0.9704,-0.9706,-0.972,-0.9725,-0.9729,-0.9676,-0.9676,-0.9676,0,0,-0.9581,-0.9586,-0.9603,-0.961,-0.962,-0.9622,-0.9626,-0.9635,-0.9638,-0.9658,-0.9653,-0.9666,-0.9689,-0.9697,-0.9704,-0.9735,-0.9731,-0.9739,-0.9756,-0.9771,-0.9774,-0.9778,-0.979,-0.9794,-0.9742,-0.9742,-0.9742,0,-0.9593,-0.9613,-0.9612,-0.9628,-0.9636,-0.963,-0.9648,-0.9655,-0.9668,-0.9674,-0.9667,-0.9697,-0.9703,-0.9729,-0.9737,-0.9742,-0.9748,-0.9738,-0.9774,-0.9777,-0.978,-0.9792,-0.9797,-0.9743,-0.9743,-0.9743,-0.9743,0,-0.9629,-0.9643,-0.9656,-0.9669,-0.9678,-0.9695,-0.9697,-0.9707,-0.9705,-0.9709,-0.973,-0.9738,-0.9752,-0.9758,-0.9757,-0.9784,-0.978,-0.9774,-0.9761,-0.9786,-0.9797,-0.9801,-0.9745,-0.9744,-0.9744,-0.9744,0,0,-0.9663,-0.9677,-0.9681,-0.9688,-0.9699,-0.9711,-0.9728,-0.9742,-0.9751,-0.976,-0.9775,-0.9795,-0.979,-0.9798,-0.9797,-0.981,-0.9836,-0.9802,-0.9802,-0.9809,-0.9868,-0.9874,-0.9879,-0.9833,-0.9834,-0.9835,-0.9868,0,-0.9692,-0.9721,-0.9721,-0.9749,-0.9763,-0.9758,-0.9773,-0.9782,-0.9785,-0.9798,-0.9802,-0.9817,-0.9808,-0.9813,-0.9825,-0.983,-0.9848,-0.9828,-0.9848,-0.9849,-0.9846,-0.9885,-0.989,-0.9921,-0.9872,-0.9873,-0.9873,0,-0.9729,-0.9741,-0.9769,-0.9779,-0.9785,-0.9799,-0.9813,-0.9825,-0.9835,-0.9837,-0.9846,-0.9845,-0.9863,-0.985,-0.9876,-0.9862,-0.987,-0.9874,-0.9875,-0.9878,-0.9863,-0.9889,-0.9931,-0.9936,-0.988,-0.9879,-0.9879,0,-0.9753,-0.9776,-0.9796,-0.9802,-0.9814,-0.9823,-0.9829,-0.9839,-0.9848,-0.986,-0.9866,-0.988,-0.9888,-0.9899,-0.9902,-0.9892,-0.9928,-0.9915,-0.9931,-0.9931,-0.994,-0.9939,-0.9984,-0.9944,-0.9944,-0.9944,-0.9943,0,-0.9786,-0.9804,-0.9807,-0.982,-0.984,-0.9841,-0.9861,-0.9866,-0.9875,-0.9889,-0.9885,-0.9899,-0.9901,-0.9915,-0.9917,-0.9939,-0.9943,-0.9945,-0.9946,-0.9946,-0.9946,-0.9952,-0.9951,-0.9945,-0.9945,-0.9944,-0.9944,0,-0.9816,-0.9819,-0.9841,-0.9851,-0.9854,-0.9868,-0.9877,-0.989,-0.9893,-0.9911,-0.9916,-0.9921,-0.9938,-0.9942,-0.9961,-0.9963,-0.9989,-0.9987,-0.9986,-0.9986,-1.0003,-1.0001,-1.0054,-1.0061,-1.0015,-1.0015,-1.0016,0,-0.9837,-0.9851,-0.9862,-0.9871,-0.9878,-0.9892,-0.9901,-0.9903,-0.9912,-0.9926,-0.9937,-0.9954,-0.9967,-0.9994,-1.0001,-1.0016,-1.0015,-1.0032,-1.0017,-1.0018,-1.0017,-1.0016,-1.0018,-1.0035,-1.0036,-1.0036,-1.0037,0,-0.9875,-0.9876,-0.9889,-0.9903,-0.9914,-0.9925,-0.9936,-0.9944,-0.9946,-0.9958,-0.9975,-0.9985,-1.0006,-1.0023,-1.0038,-1.0045,-1.0042,-1.0041,-1.0046,-1.0047,-1.0046,-1.0048,-0.9995,-1.004,-1.004,-1.004,-1.0039,-1.0039,-0.9902,-0.9915,-0.9925,-0.994,-0.9948,-0.9958,-0.9971,-0.9976,-0.999,-1.0007,-1.0007,-1.0026,-1.0037,-1.0058,-1.0065,-1.0081,-1.0076,-1.0082,-1.0084,-1.0086,-1.0088,-1.0043,-1.0084,-1.0084,-1.0083,-1.0083,-1.0083,0,-0.9941,-0.9947,-0.9961,-0.9976,-0.9988,-0.9984,-0.9995,-1.0006,-1.0023,-1.0033,-1.0047,-1.0067,-1.0083,-1.0091,-1.0108,-1.0119,-1.0118,-1.0123,-1.0123,-1.0125,-1.0091,-1.0086,-1.0124,-1.0124,-1.0124,-1.0124,-1.0124,-1.0124,-0.9962,-0.9984,-0.9986,-1.0012,-1.0018,-1.0036,-1.0044,-1.0054,-1.0062,-1.0085,-1.0098,-1.0103,-1.0113,-1.013,-1.0146,-1.0148,-1.0155,-1.0161,-1.0162,-1.0131,-1.0127,-1.0123,-1.0118,-1.0162,-1.0162,-1.0194,-1.0195,-1.0195]},{"header":{"parameterUnit":"m.s-1","parameterCategory":1,"la1":30.2991,"la2":30.254,"lo1":-89.0895,"lo2":-89.0444,"dy":0.0017,"dx":0.0017,"nx":28,"ny":28,"refTime":"2024-04-24T21:00:00:Z","depth":0,"parameterNumber":3,"parameterNumberName":"V-component_of_WINDS"},"data":[0,0,0,0,0,0,0,0,0,0,0,0,0,0,0,0,0,0,0,0,0,0,0,0,0,0,0,0,0,0,0,0,0,0,0,0,0,0,0,0,0,0,0,0,0,0,0,0,0,0,0,0,0,0,0,0,0,0,4.2342,4.2342,0,4.2336,4.2336,4.2336,4.225,4.2247,4.2245,4.2243,4.2238,4.2239,4.2241,0,0,0,0,0,0,0,0,0,0,0,0,0,4.2278,4.228,4.2342,4.2342,4.2342,4.2336,4.2336,4.2336,4.225,4.2247,4.2245,4.2242,4.2237,4.2239,4.2241,0,0,0,0,0,0,0,0,0,0,0,0,0,4.2293,4.228,4.2342,4.2298,4.2294,4.2336,4.2336,4.2336,4.225,4.2247,4.2244,4.2241,4.2236,4.2239,4.2242,4.2326,0,0,4.225,4.2252,0,0,0,0,0,0,0,0,4.2292,4.2295,4.2305,4.2301,4.2297,4.229,4.2312,4.2333,4.2251,4.2267,4.2243,4.2239,4.2258,4.2259,4.2265,4.2325,4.2325,4.2251,4.2252,4.2254,4.2255,0,0,0,0,0,0,0,4.2291,4.2295,4.234,4.2305,4.23,4.2279,4.2277,4.2315,4.2281,4.2266,4.2259,4.226,4.2255,4.2262,4.2264,4.2325,4.2251,4.2253,4.2255,4.2256,4.2453,4.2456,0,0,0,0,0,0,4.2296,4.2295,4.234,4.234,4.2286,4.2283,4.2281,4.2296,4.228,4.2275,4.2263,4.2256,4.2259,4.2261,4.2264,4.236,4.2254,4.2256,4.2258,4.2449,4.2453,4.2457,0,0,0,0,0,0,4.2295,4.2301,4.234,4.2315,4.2319,4.2287,4.2305,4.2297,4.2305,4.2278,4.2272,4.2276,4.2256,4.226,4.231,4.2358,4.2258,4.226,4.2445,4.2451,4.2455,4.2554,0,0,0,0,0,0,4.2294,4.2301,4.2333,4.2317,4.232,4.2388,4.2308,4.23,4.231,4.2301,4.2289,4.2284,4.2254,4.2307,4.2313,4.2361,4.2262,4.2441,4.2448,4.2454,4.2546,4.2562,4.2575,0,0,0,0,0,4.2292,4.2361,4.2335,4.2341,4.2359,4.2391,4.2393,4.2357,4.2314,4.2345,4.2328,4.2285,4.2352,4.2313,4.2319,4.2368,4.2437,4.2446,4.2453,4.254,4.2559,4.2575,0,0,0,0,0,0,4.2384,4.2358,4.2329,4.2395,4.2396,4.2376,4.2415,4.2378,4.2391,4.2382,4.2337,4.2335,4.2393,4.2385,4.2342,4.2448,4.2387,4.2397,4.245,4.2468,4.2483,4.2483,4.2265,0,0,0,0,0,4.2412,4.244,4.2416,4.2477,4.2478,4.2447,4.2459,4.2431,4.243,4.243,4.2416,4.2417,4.2438,4.2453,4.2471,4.2545,4.2541,4.2581,4.2596,4.2608,4.2617,4.2654,4.2672,4.2483,4.2483,4.2483,0,0,4.2471,4.246,4.248,4.2495,4.2492,4.2521,4.2448,4.2482,4.2503,4.2435,4.2482,4.2472,4.247,4.2532,4.2559,4.2528,4.2668,4.2618,4.2628,4.263,4.2664,4.2682,4.2698,4.2489,4.2488,4.2487,0,0,4.2592,4.2587,4.2637,4.2635,4.2631,4.261,4.2622,4.2607,4.2598,4.2644,4.2593,4.2618,4.2656,4.2656,4.2661,4.2781,4.2741,4.2788,4.2864,4.2901,4.2916,4.2929,4.2972,4.2987,4.2797,4.2797,4.2798,0,4.2666,4.2708,4.2667,4.2705,4.2712,4.2651,4.2701,4.2701,4.2704,4.2711,4.2676,4.2721,4.2715,4.2776,4.2806,4.2812,4.2824,4.2789,4.2917,4.293,4.2941,4.2981,4.2997,4.2803,4.2802,4.2802,4.2801,0,4.2797,4.2827,4.2868,4.2871,4.2883,4.2927,4.2893,4.291,4.2881,4.2863,4.291,4.2901,4.2916,4.2928,4.29,4.2986,4.2966,4.2925,4.2863,4.2966,4.3002,4.3017,4.2811,4.2809,4.2808,4.2806,0,0,4.2978,4.2957,4.2973,4.2973,4.2964,4.2986,4.3027,4.304,4.3056,4.306,4.3092,4.3125,4.3086,4.3092,4.3064,4.3097,4.3192,4.3051,4.305,4.3077,4.3284,4.3315,4.3333,4.3165,4.3168,4.317,4.3284,0,4.3094,4.3162,4.3126,4.3198,4.3225,4.3167,4.3202,4.32,4.3184,4.3204,4.3187,4.321,4.3158,4.3161,4.3191,4.3174,4.3232,4.3165,4.3195,4.3196,4.3197,4.3352,4.3385,4.3493,4.3298,4.3301,4.3302,0,4.3239,4.3248,4.3323,4.3308,4.3318,4.335,4.3359,4.3379,4.3376,4.3362,4.3368,4.3331,4.337,4.3309,4.336,4.3315,4.3325,4.3319,4.3322,4.3323,4.3255,4.3357,4.3527,4.3543,4.3325,4.3323,4.3321,0,4.3363,4.3393,4.3442,4.3444,4.3428,4.3451,4.3446,4.3439,4.3449,4.3457,4.3463,4.3476,4.3484,4.3494,4.3462,4.3421,4.3518,4.3455,4.3508,4.3509,4.3531,4.353,4.3704,4.3538,4.3538,4.3538,4.3537,0,4.3496,4.3544,4.3497,4.3527,4.3578,4.3536,4.3589,4.3577,4.3571,4.3597,4.3548,4.3574,4.353,4.3551,4.3526,4.3573,4.3577,4.3566,4.3559,4.357,4.3572,4.3576,4.3568,4.3542,4.3541,4.354,4.3539,0,4.3643,4.3613,4.3661,4.3642,4.3638,4.3677,4.3659,4.3686,4.3666,4.37,4.3706,4.3675,4.3698,4.3666,4.3686,4.3669,4.3733,4.3715,4.3734,4.3728,4.3783,4.3778,4.3966,4.3988,4.3809,4.3811,4.3812,0,4.373,4.3765,4.3748,4.3762,4.3759,4.3782,4.3792,4.3752,4.3764,4.3763,4.3789,4.3808,4.382,4.3859,4.3838,4.3853,4.3834,4.3899,4.3836,4.3846,4.3835,4.3833,4.3836,4.3912,4.3914,4.3916,4.3917,0,4.3887,4.387,4.3886,4.3897,4.391,4.3917,4.392,4.3934,4.3892,4.3909,4.393,4.394,4.3959,4.3978,4.3987,4.3981,4.3943,4.3937,4.395,4.3962,4.3971,4.3966,4.3768,4.3933,4.3931,4.393,4.3929,4.3929,4.4006,4.4034,4.4027,4.4046,4.4044,4.4047,4.4071,4.4054,4.4071,4.4084,4.4059,4.4087,4.4082,4.409,4.4088,4.411,4.4082,4.4101,4.4105,4.411,4.4118,4.3968,4.4111,4.4111,4.411,4.411,4.411,0,4.4161,4.4153,4.417,4.4176,4.4191,4.4152,4.4153,4.4168,4.4193,4.4191,4.4204,4.4229,4.4247,4.4228,4.4242,4.4263,4.4245,4.4268,4.4265,4.4265,4.4143,4.413,4.4281,4.4281,4.4281,4.4281,4.4281,4.4281,4.4243,4.4288,4.427,4.4314,4.4305,4.4331,4.4335,4.4338,4.4336,4.4366,4.438,4.4367,4.4358,4.4371,4.4386,4.4379,4.4387,4.4416,4.4403,4.429,4.4273,4.4257,4.4245,4.4418,4.4418,4.4523,4.4524,4.4525]}]]